Simultaneous Nadir Overpasses (SNOs) Predictions

Prediction of SNOs between METOP-B and TERRA Satellite Orbit:

Table of predicted SNOs for the next 14.0 days since TLE Epoch: 12/7/2024
Index Date (METOP-B) Time (METOP-B) Lat,Lon (METOP-B) SZA (METOP-B ) Date (TERRA) Time (TERRA) Lat,Lon (TERRA) SZA (TERRA ) Distance(km) Time Diff (sec)
1 12/07/2024 09:07:32 -79.45,-124.03 77.60 12/07/2024 09:07:40 -79.46,-123.99 77.59 1.06 8
2 12/07/2024 09:58:03 79.76, 45.78 102.82 12/07/2024 09:56:53 79.75, 45.62 102.79 3.21 70
3 12/09/2024 22:46:57 79.24,-150.47 102.38 12/09/2024 22:47:51 79.25,-150.38 102.39 1.93 54
4 12/09/2024 23:37:29 -79.56, 19.25 77.22 12/09/2024 23:37:03 -79.56, 19.26 77.22 0.27 26
5 12/12/2024 13:16:53 79.34, -7.30 102.69 12/12/2024 13:17:12 79.35, -7.17 102.70 2.93 19
6 12/12/2024 14:07:26 -79.61, 162.19 76.95 12/12/2024 14:06:25 -79.62, 162.26 76.96 1.51 61
7 12/15/2024 02:56:15 -79.25, -32.82 77.29 12/15/2024 02:57:18 -79.24, -32.88 77.29 1.52 63
8 12/15/2024 03:46:47 79.52, 136.60 103.07 12/15/2024 03:46:31 79.52, 136.57 103.06 0.60 16
9 12/17/2024 17:26:10 -79.39, 110.72 77.03 12/17/2024 17:26:37 -79.38, 110.61 77.03 2.30 27
10 12/17/2024 18:16:43 79.62, -80.10 103.29 12/17/2024 18:15:51 79.62, -80.19 103.26 2.03 52
11 12/20/2024 07:05:33 79.20, 84.46 102.77 12/20/2024 07:06:43 79.19, 84.40 102.78 1.30 70



Historial Predications of SNOs between METOP-B and TERRA
